When you browse on this site, cookies collect data to enhance your experience and personalize the content and advertising you see.
Visit our Privacy Policy to learn more. By continuing to use the site, you agree to this use of cookies and data.
  • In United Kingdom
  • List of Countries
  • For 7 days
  • Water Temperature
  • Weather Map
  • Weather Widgets
  • user-avatar
    Login

    Hourly Weather Kasama

    Today, 20 September, Friday

    Time Temperature Precipitation Wind Pressure Humidity
    00:00 +23°C° 0 mm 0 mps 721 mmHg 85%
    01:00 +23°C° 0 mm 0 mps 720 mmHg 85%
    02:00 +23°C° 0 mm 0 mps 720 mmHg 83%
    03:00 +23°C° 0 mm 0 mps 720 mmHg 82%
    04:00 +23°C° 0 mm 0 mps 720 mmHg 81%
    05:00 +23°C° 0 mm 0 mps 720 mmHg 81%
    06:00 +24°C° 0 mm 0 mps 720 mmHg 78%
    07:00 +25°C° 0 mm 0 mps 721 mmHg 76%
    08:00 +29°C° 0 mm 1 mps 721 mmHg 72%
    09:00 +28°C° 0 mm 0 mps 721 mmHg 71%
    10:00 +28°C° 0 mm 0 mps 721 mmHg 70%
    11:00 +29°C° 0 mm 0 mps 721 mmHg 68%
    12:00 +31°C° 0.5 mm 1 mps 721 mmHg 70%
    13:00 +31°C° 0.5 mm 2 mps 720 mmHg 71%
    14:00 +31°C° 0.5 mm 2 mps 719 mmHg 73%
    15:00 +30°C° 0.3 mm 2 mps 719 mmHg 77%
    16:00 +30°C° 0.3 mm 2 mps 719 mmHg 81%
    17:00 +29°C° 0.3 mm 1 mps 720 mmHg 85%
    18:00 +28°C° 0.4 mm 1 mps 720 mmHg 87%
    19:00 +27°C° 0.4 mm 1 mps 720 mmHg 89%
    20:00 +26°C° 0.4 mm 1 mps 720 mmHg 91%
    21:00 +26°C° 0 mm 1 mps 721 mmHg 91%
    22:00 +25°C° 0 mm 1 mps 721 mmHg 91%
    23:00 +23°C° 0 mm 0 mps 722 mmHg 91%

    Tomorrow, 21 September, Saturday

    Time Temperature Precipitation Wind Pressure Humidity
    00:00 +23°C° 0.1 mm 0 mps 721 mmHg 91%
    01:00 +25°C° 0.1 mm 1 mps 720 mmHg 92%
    02:00 +25°C° 0.1 mm 1 mps 720 mmHg 92%
    03:00 +24°C° 0 mm 1 mps 720 mmHg 92%
    04:00 +24°C° 0 mm 1 mps 720 mmHg 92%
    05:00 +24°C° 0 mm 1 mps 720 mmHg 92%
    06:00 +25°C° 0 mm 2 mps 721 mmHg 90%
    07:00 +26°C° 0 mm 2 mps 721 mmHg 88%
    08:00 +27°C° 0 mm 2 mps 722 mmHg 86%
    09:00 +28°C° 0 mm 2 mps 722 mmHg 79%
    10:00 +30°C° 0 mm 3 mps 722 mmHg 72%
    11:00 +31°C° 0 mm 3 mps 722 mmHg 65%
    12:00 +33°C° 0 mm 3 mps 721 mmHg 63%
    13:00 +33°C° 0 mm 3 mps 720 mmHg 61%
    14:00 +34°C° 0 mm 3 mps 720 mmHg 59%
    15:00 +32°C° 0.1 mm 2 mps 719 mmHg 64%
    16:00 +31°C° 0.1 mm 2 mps 719 mmHg 68%
    17:00 +31°C° 0.1 mm 1 mps 719 mmHg 73%
    18:00 +30°C° 0.3 mm 1 mps 720 mmHg 75%
    19:00 +28°C° 0.3 mm 1 mps 720 mmHg 77%
    20:00 +27°C° 0.3 mm 1 mps 721 mmHg 78%
    21:00 +27°C° 0.1 mm 1 mps 721 mmHg 81%
    22:00 +26°C° 0.1 mm 1 mps 720 mmHg 84%
    23:00 +25°C° 0.1 mm 1 mps 720 mmHg 87%

    Day after tomorrow, 22 September, Sunday

    Time Temperature Precipitation Wind Pressure Humidity
    00:00 +25°C° 0 mm 1 mps 720 mmHg 88%
    01:00 +25°C° 0 mm 1 mps 720 mmHg 88%
    02:00 +24°C° 0 mm 1 mps 719 mmHg 89%
    03:00 +24°C° 0 mm 1 mps 719 mmHg 89%
    04:00 +24°C° 0 mm 1 mps 720 mmHg 90%
    05:00 +24°C° 0 mm 1 mps 720 mmHg 90%
    06:00 +25°C° 0 mm 1 mps 720 mmHg 86%
    07:00 +27°C° 0 mm 1 mps 721 mmHg 82%
    08:00 +28°C° 0 mm 1 mps 721 mmHg 78%
    09:00 +30°C° 0 mm 1 mps 721 mmHg 71%
    10:00 +32°C° 0 mm 1 mps 721 mmHg 65%
    11:00 +34°C° 0 mm 2 mps 721 mmHg 58%
    12:00 +35°C° 0 mm 2 mps 721 mmHg 56%
    13:00 +34°C° 0 mm 1 mps 720 mmHg 54%
    14:00 +35°C° 0 mm 1 mps 719 mmHg 52%
    15:00 +34°C° 0 mm 1 mps 719 mmHg 57%
    16:00 +33°C° 0 mm 1 mps 719 mmHg 61%
    17:00 +31°C° 0 mm 0 mps 719 mmHg 66%
    18:00 +31°C° 0.3 mm 1 mps 719 mmHg 69%
    19:00 +29°C° 0.3 mm 1 mps 719 mmHg 72%
    20:00 +28°C° 0.3 mm 1 mps 719 mmHg 75%
    21:00 +27°C° 1.1 mm 1 mps 720 mmHg 81%
    22:00 +26°C° 1.1 mm 1 mps 720 mmHg 87%
    23:00 +25°C° 1.1 mm 1 mps 720 mmHg 93%

    23 September, Monday

    Time Temperature Precipitation Wind Pressure Humidity
    00:00 +25°C° 0.9 mm 1 mps 720 mmHg 94%
    01:00 +25°C° 0.9 mm 1 mps 720 mmHg 94%
    02:00 +22°C° 0.9 mm 0 mps 720 mmHg 95%
    03:00 +22°C° 0.3 mm 0 mps 720 mmHg 94%
    04:00 +22°C° 0.3 mm 0 mps 720 mmHg 94%
    05:00 +22°C° 0.3 mm 0 mps 720 mmHg 94%
    06:00 +24°C° 0 mm 0 mps 721 mmHg 91%
    07:00 +25°C° 0 mm 0 mps 721 mmHg 88%
    08:00 +26°C° 0 mm 0 mps 722 mmHg 85%
    09:00 +28°C° 0 mm 0 mps 721 mmHg 78%
    10:00 +31°C° 0 mm 1 mps 721 mmHg 70%
    11:00 +33°C° 0 mm 1 mps 721 mmHg 63%
    12:00 +33°C° 0.5 mm 1 mps 721 mmHg 62%
    13:00 +33°C° 0.5 mm 1 mps 720 mmHg 61%
    14:00 +34°C° 0.5 mm 1 mps 720 mmHg 59%
    15:00 +32°C° 0.2 mm 1 mps 719 mmHg 66%
    16:00 +31°C° 0.2 mm 1 mps 719 mmHg 72%
    17:00 +30°C° 0.2 mm 1 mps 719 mmHg 79%
    18:00 +28°C° 0.2 mm 1 mps 719 mmHg 81%
    19:00 +27°C° 0.2 mm 1 mps 720 mmHg 84%
    20:00 +26°C° 0.2 mm 1 mps 720 mmHg 86%
    21:00 +26°C° 0.4 mm 1 mps 720 mmHg 88%
    22:00 +25°C° 0.4 mm 1 mps 721 mmHg 90%
    23:00 +25°C° 0.4 mm 1 mps 721 mmHg 93%

    24 September, Tuesday

    Time Temperature Precipitation Wind Pressure Humidity
    00:00 +25°C° 0.2 mm 1 mps 721 mmHg 93%
    01:00 +25°C° 0.2 mm 1 mps 720 mmHg 93%
    02:00 +24°C° 0.2 mm 1 mps 720 mmHg 93%
    03:00 +22°C° 0 mm 0 mps 720 mmHg 93%
    04:00 +22°C° 0 mm 0 mps 720 mmHg 92%
    05:00 +22°C° 0 mm 0 mps 721 mmHg 91%
    06:00 +24°C° 0 mm 0 mps 721 mmHg 89%
    07:00 +27°C° 0 mm 1 mps 722 mmHg 86%
    08:00 +28°C° 0 mm 1 mps 722 mmHg 84%
    09:00 +29°C° 0.2 mm 2 mps 722 mmHg 79%
    10:00 +30°C° 0.2 mm 2 mps 722 mmHg 75%
    11:00 +33°C° 0.2 mm 3 mps 722 mmHg 70%
    12:00 +32°C° 0.9 mm 2 mps 721 mmHg 68%
    13:00 +32°C° 0.9 mm 2 mps 720 mmHg 66%
    14:00 +34°C° 0.9 mm 2 mps 720 mmHg 64%
    15:00 +32°C° 0.3 mm 2 mps 719 mmHg 68%
    16:00 +31°C° 0.3 mm 1 mps 719 mmHg 73%
    17:00 +30°C° 0.3 mm 1 mps 719 mmHg 78%
    18:00 +29°C° 0.7 mm 1 mps 719 mmHg 80%
    19:00 +26°C° 0.7 mm 0 mps 720 mmHg 81%
    20:00 +25°C° 0.7 mm 0 mps 720 mmHg 83%
    21:00 +25°C° 0 mm 0 mps 720 mmHg 85%
    22:00 +24°C° 0 mm 0 mps 720 mmHg 86%
    23:00 +26°C° 0 mm 1 mps 721 mmHg 87%

    25 September, Wednesday

    Time Temperature Precipitation Wind Pressure Humidity
    00:00 +23°C° 0 mm 0 mps 720 mmHg 88%
    01:00 +23°C° 0 mm 0 mps 720 mmHg 88%
    02:00 +23°C° 0 mm 0 mps 720 mmHg 89%
    03:00 +23°C° 0 mm 0 mps 720 mmHg 89%
    04:00 +23°C° 0 mm 0 mps 720 mmHg 90%
    05:00 +23°C° 0 mm 0 mps 720 mmHg 90%
    06:00 +26°C° 0 mm 1 mps 721 mmHg 88%
    07:00 +27°C° 0 mm 1 mps 721 mmHg 86%
    08:00 +28°C° 0 mm 2 mps 722 mmHg 84%
    09:00 +30°C° 0 mm 2 mps 722 mmHg 78%
    10:00 +31°C° 0 mm 2 mps 722 mmHg 71%
    11:00 +34°C° 0 mm 2 mps 721 mmHg 65%
    12:00 +34°C° 0.7 mm 2 mps 721 mmHg 64%
    13:00 +34°C° 0.7 mm 2 mps 720 mmHg 64%
    14:00 +34°C° 0.7 mm 2 mps 720 mmHg 63%
    15:00 +32°C° 1 mm 1 mps 719 mmHg 70%
    16:00 +31°C° 1 mm 1 mps 719 mmHg 76%
    17:00 +30°C° 1 mm 1 mps 719 mmHg 82%
    18:00 +28°C° 0.1 mm 1 mps 719 mmHg 84%
    19:00 +27°C° 0.1 mm 1 mps 720 mmHg 87%
    20:00 +26°C° 0.1 mm 1 mps 720 mmHg 89%
    21:00 +26°C° 0 mm 1 mps 720 mmHg 90%
    22:00 +26°C° 0 mm 1 mps 721 mmHg 90%
    23:00 +25°C° 0 mm 1 mps 721 mmHg 90%
    Show more